ROMMA est une association bénévole à but non lucratif. Votre soutien est indispensable : ADHERER à ROMMA ou FAIRE un DON

Le Versoud - (38, Isère)

Vallée du Grésivaudan (220 m)   Longitude: 05° 51' 44" E   Latitude: 45° 13' 06" N Station partenaire n°6
 

Détail journalier du     <<     >>

Température Humidité Pression Vent Dir Rafale Dir. rafale Ensol.
Heure (°C) (%) (hPa) (km/h) (km/h) (min)
01:00 19.075101200---0
02:00 17.879101300---0
03:00 17.278101200---0
04:00 16.587101300---0
05:00 15.788101200---0
06:00 15.788101200---0
07:00 16.185101400---0
08:00 16.0861014018O0
09:00 15.4901016013S0
10:00 15.892101406SSO0
11:00 17.488101408SO0
12:00 18.5811014010S0
13:00 20.9721014011E50
14:00 23.6581013010NE55
15:00 25.150101206NO60
16:00 25.948101205NO20
17:00 26.153101202NO0
18:00 22.6741013013OSO0
19:00 22.1781013013O0
20:00 22.3771013011S0
21:00 20.779101302SSE0
22:00 20.97910141---18SE0
23:00 19.483101402SE0
minuit 19.182101400---0

Graphique du 20-06-2019

 

Serveur OMMA